Wind_Speed
14 14 13 13 12 12 11 11 10 10 10 9 9 9 9 8 7 7 7 6 6 5 5 5 4 5 4 4 4 4 3 3 2 2 2 1 1 0 1 2 2 3 3
15 14 14 14 13 13 12 11 11 11 11 10 10 10 10 9 8 8 8 7 7 6 6 5 5 5 5 5 5 4 4 4 3 3 2 2 1 1 1 2 3 3 4
16 15 15 14 14 14 13 13 12 12 12 12 11 11 11 10 9 8 8 8 8 7 7 6 6 6 6 5 5 5 5 5 4 4 3 3 2 2 2 3 3 4 4
18 17 16 16 16 15 15 14 14 13 13 14 13 13 12 11 11 10 10 9 9 8 8 7 7 7 6 6 6 6 6 6 6 5 4 4 3 3 3 3 4 4 5
20 19 19 18 18 17 16 16 15 15 15 15 15 14 14 13 12 12 11 11 11 10 9 9 8 8 7 7 7 7 6 6 6 6 5 5 5 4 4 4 5 5 5
22 21 21 20 20 19 18 18 17 17 16 17 16 16 15 15 14 14 13 12 12 11 10 10 10 9 9 8 8 7 7 7 7 7 6 6 5 5 5 5 6 6 6
24 24 23 22 21 21 20 20 20 19 18 18 18 18 17 16 16 15 14 14 13 12 12 11 10 10 10 10 9 9 9 8 8 8 7 7 6 7 7 7 7 7 8
25 25 24 24 24 23 23 22 22 21 20 20 20 20 19 18 17 17 16 15 14 14 13 13 12 12 11 11 11 10 10 10 9 9 9 8 8 8 8 8 9 9 9
27 27 26 26 26 25 25 25 24 24 23 22 22 21 21 20 18 18 17 16 15 15 14 14 13 13 13 13 12 12 11 11 11 11 10 10 9 9 9 9 10 10 10
28 28 28 28 28 27 27 27 26 26 25 25 24 23 23 22 21 20 19 18 17 16 16 15 15 15 14 14 13 13 13 12 12 12 11 10 10 9 10 10 10 10 10
30 30 30 30 30 29 29 28 28 28 28 27 26 25 25 25 23 22 21 20 19 18 18 17 17 16 16 16 15 15 14 14 13 13 12 12 11 11 11 11 11 11 11
30 30 30 31 31 31 30 29 30 30 29 29 29 28 27 27 26 25 23 22 21 20 19 19 19 18 17 17 17 16 16 16 16 15 14 14 13 13 13 12 12 12 12
31 31 31 32 32 32 32 31 30 31 31 31 30 30 29 29 28 27 26 25 24 22 21 21 20 20 19 19 18 18 18 18 17 17 16 16 16 15 15 14 14 14 14
33 32 33 33 33 33 33 33 32 31 32 32 31 31 31 31 30 30 28 27 26 25 23 23 22 22 21 21 20 20 20 19 19 19 18 18 17 17 17 16 16 16 16
34 33 33 33 33 34 35 35 34 32 32 33 32 31 32 32 32 32 30 29 28 27 26 25 23 23 22 22 22 22 21 21 21 20 20 20 19 19 19 19 19 19 19
34 34 34 35 35 35 35 36 36 34 32 32 33 32 32 32 33 32 32 31 30 29 28 27 26 25 24 24 23 23 23 22 22 22 22 22 22 21 21 21 21 21 21
35 35 35 36 36 36 36 36 37 36 34 33 34 34 33 33 33 33 32 32 31 31 30 29 28 27 26 26 26 26 25 24 24 23 23 23 24 24 23 23 23 23 22
36 36 36 36 37 37 36 37 38 37 36 35 35 35 34 34 34 34 33 32 32 32 32 31 30 29 28 28 28 28 27 25 25 25 25 25 25 26 26 25 25 25 24
37 37 37 37 37 37 36 37 38 38 37 37 36 35 35 35 35 35 34 34 34 34 33 32 31 31 30 30 30 29 29 28 28 27 27 27 27 27 27 27 26 27 27
38 37 37 37 37 37 36 37 38 38 37 37 38 37 37 36 36 36 35 35 35 35 34 33 33 32 32 31 31 31 31 30 30 30 29 29 29 29 29 29 28 29 29
38 37 37 37 37 36 36 37 37 37 36 36 37 38 37 37 37 37 36 35 36 36 36 35 35 34 33 33 33 32 33 33 32 32 31 31 31 31 31 30 30 30 30
37 37 36 36 36 36 36 37 37 37 37 36 37 37 37 38 38 38 38 36 37 37 37 36 35 34 34 34 35 35 35 34 33 34 33 33 33 33 32 32 32 32 32
38 37 37 36 37 37 37 37 38 38 37 36 37 38 38 38 39 39 39 38 38 38 37 37 36 35 36 36 36 36 35 35 34 34 34 34 34 34 34 34 33 34 34
38 38 38 36 37 38 37 37 38 38 37 37 37 38 39 39 39 39 39 38 37 38 38 38 37 37 37 37 36 37 36 35 35 35 35 34 34 35 35 35 35 35 36
38 38 37 37 38 38 37 37 38 38 38 38 38 38 39 39 40 38 39 39 38 38 38 38 37 38 38 38 37 37 37 36 36 35 34 34 35 36 37 36 37 37 37
37 36 36 37 37 38 38 37 37 37 37 38 37 38 39 39 39 38 39 39 39 39 39 38 38 38 38 39 38 38 37 36 36 36 36 35 36 37 37 37 37 37 38
Wind_Direction
235 234 234 230 227 226 225 224 222 220 220 217 214 213 212 212 212 212 208 204 204 204 203 202 201 202 202 200 200 202 198 194 191 195 195 197 218 334 2 356 352 353 352
237 236 235 232 229 227 225 224 225 222 222 221 219 220 220 218 218 217 216 214 214 213 212 209 209 210 211 212 212 210 208 210 212 211 212 221 249 297 322 335 335 334 334
238 237 235 233 230 228 226 224 225 225 224 225 225 224 225 224 222 221 221 220 219 218 219 219 218 219 219 221 222 220 217 220 224 226 230 237 252 276 301 313 323 327 327
238 238 237 235 232 230 229 227 227 228 229 228 229 228 230 230 230 228 227 225 225 224 225 225 225 226 227 229 230 228 225 225 228 232 239 246 255 270 289 300 308 317 323
239 238 237 236 235 233 232 232 233 232 232 232 231 232 233 233 234 235 233 230 230 229 228 229 230 231 231 231 233 233 232 229 230 234 241 250 257 267 278 289 299 308 314
239 238 238 237 237 236 235 236 236 236 235 235 235 234 235 236 236 236 236 234 232 230 230 231 233 234 231 233 235 235 234 232 232 235 241 249 257 266 273 282 290 299 304
241 240 239 238 238 239 240 240 239 238 237 237 238 238 237 238 237 235 234 233 231 231 232 233 234 235 234 234 236 238 238 237 236 238 243 250 258 266 272 278 281 288 294
243 242 241 240 240 241 241 241 241 240 239 239 240 239 238 238 238 235 233 233 233 233 235 237 237 237 237 237 237 238 240 240 241 242 247 253 260 267 272 276 278 283 289
244 243 242 242 242 241 241 241 241 241 240 240 241 241 239 238 237 236 234 235 236 235 236 238 239 238 240 241 239 240 242 242 243 245 249 254 260 265 270 276 278 279 283
245 245 244 244 243 242 241 241 241 242 241 240 240 240 240 239 237 236 234 235 238 238 239 238 239 240 241 242 241 242 242 243 245 246 249 252 257 263 268 274 277 277 281
246 246 246 245 244 244 242 241 241 242 243 241 240 240 241 240 238 237 237 238 240 241 241 240 240 242 242 242 242 243 243 243 246 248 250 253 256 261 268 273 276 275 279
246 247 246 245 245 245 243 242 242 243 244 242 240 240 240 239 239 239 238 240 241 242 242 242 241 242 243 242 241 242 244 244 246 250 253 255 257 261 266 270 272 274 277
246 247 247 246 245 245 243 242 243 243 244 243 240 238 238 238 238 239 240 241 241 243 244 243 243 243 244 244 242 243 244 244 245 249 253 256 259 262 265 267 270 273 276
246 246 246 245 245 244 243 243 243 244 244 243 240 237 236 236 237 238 239 240 241 243 244 244 244 244 245 245 242 244 245 245 246 250 253 256 259 262 263 266 269 271 274
246 246 246 245 245 244 243 242 242 244 243 242 239 237 236 236 237 237 238 239 240 241 243 243 242 244 246 245 243 244 246 246 247 251 254 256 259 262 263 265 269 271 273
246 246 245 245 245 245 245 244 242 242 242 240 238 238 237 237 237 237 238 238 239 241 243 244 244 244 245 245 244 245 247 248 249 252 255 257 260 262 265 267 269 270 272
247 246 245 245 245 246 246 244 242 241 240 239 238 238 238 237 238 238 239 238 238 239 241 243 244 245 245 246 246 247 248 251 251 253 256 259 261 262 263 266 268 269 271
246 245 245 245 245 246 247 245 243 240 239 238 238 237 238 238 238 239 239 239 239 240 241 242 244 245 246 247 248 248 249 251 253 254 257 260 261 261 263 266 268 268 271
245 244 244 244 244 245 245 244 243 240 238 238 238 238 238 238 239 240 240 240 241 241 242 243 244 244 244 246 247 248 250 251 253 255 257 260 261 261 263 265 268 268 269
245 244 244 244 244 244 244 243 241 239 239 238 238 239 239 239 239 240 240 240 241 242 242 243 244 244 244 246 247 249 251 252 254 256 258 260 261 262 263 265 266 268 270
245 244 243 243 243 243 243 241 240 238 238 239 239 239 240 241 240 239 239 240 241 242 242 243 244 245 246 246 248 250 252 252 254 256 258 260 262 263 263 264 265 268 271
244 243 242 242 241 240 239 239 239 239 239 240 240 240 241 240 240 240 239 240 241 241 242 243 244 246 247 247 248 251 253 253 255 257 258 260 262 263 264 265 265 267 270
243 243 242 241 239 238 239 240 239 239 239 240 240 240 240 240 240 240 240 240 242 242 242 242 243 245 248 247 248 251 254 256 257 258 259 260 262 264 264 264 265 267 270
242 242 240 239 239 238 238 238 238 239 239 241 241 240 240 240 240 241 239 241 241 241 242 243 244 246 249 249 250 251 254 256 258 258 260 262 265 266 265 265 266 269 270
241 240 239 238 238 237 237 237 237 238 240 241 240 241 240 239 240 241 241 241 241 241 242 243 245 247 250 250 251 252 254 256 258 261 262 264 266 267 267 267 267 269 270
240 239 239 238 237 237 237 236 238 238 239 240 241 242 241 240 242 243 241 241 241 241 242 244 246 248 250 250 252 253 255 258 259 261 262 264 266 267 268 268 269 270 271
Height
5855 5856 5857 5858 5859 5859 5860 5861 5862 5863 5863 5864 5865 5865 5866 5867 5867 5868 5868 5869 5869 5870 5870 5871 5871 5871 5872 5872 5872 5873 5873 5873 5874 5874 5874 5874 5874 5874 5874 5873 5873 5873 5872
5853 5854 5855 5855 5856 5857 5858 5859 5860 5861 5862 5862 5863 5864 5865 5865 5866 5866 5867 5868 5868 5869 5869 5870 5870 5871 5871 5872 5872 5872 5872 5873 5873 5873 5873 5873 5873 5873 5873 5873 5873 5872 5872
5850 5851 5852 5853 5854 5855 5856 5857 5858 5859 5860 5861 5861 5862 5863 5864 5865 5865 5866 5866 5867 5868 5868 5869 5869 5870 5870 5871 5871 5871 5872 5872 5872 5873 5873 5873 5873 5873 5873 5872 5872 5872 5871
5847 5848 5849 5850 5851 5852 5853 5854 5855 5856 5857 5858 5859 5860 5861 5862 5863 5863 5864 5865 5866 5866 5867 5867 5868 5869 5869 5870 5870 5870 5871 5871 5871 5872 5872 5872 5872 5872 5872 5872 5872 5871 5871
5843 5844 5845 5847 5848 5849 5850 5851 5852 5853 5855 5856 5857 5858 5859 5860 5861 5861 5862 5863 5864 5865 5865 5866 5867 5867 5868 5869 5869 5869 5870 5870 5870 5871 5871 5871 5871 5871 5871 5871 5871 5870 5870
5839 5840 5841 5843 5844 5846 5847 5848 5849 5850 5852 5853 5854 5855 5856 5857 5858 5859 5860 5861 5862 5863 5863 5864 5865 5866 5866 5867 5868 5868 5868 5869 5869 5869 5869 5870 5870 5870 5870 5870 5870 5869 5869
5834 5836 5837 5839 5840 5842 5843 5844 5846 5847 5848 5849 5851 5852 5853 5854 5855 5856 5857 5858 5859 5861 5861 5862 5863 5864 5865 5865 5866 5866 5867 5867 5867 5868 5868 5868 5868 5869 5869 5868 5868 5868 5868
5829 5830 5832 5834 5836 5837 5839 5840 5842 5843 5844 5845 5847 5848 5850 5851 5852 5853 5854 5855 5857 5858 5859 5860 5861 5862 5862 5863 5864 5864 5865 5865 5866 5866 5866 5867 5867 5867 5867 5867 5867 5866 5866
5823 5825 5827 5829 5830 5832 5834 5835 5837 5838 5840 5841 5843 5844 5846 5847 5849 5850 5851 5852 5854 5855 5856 5857 5858 5859 5860 5861 5861 5862 5863 5863 5864 5864 5865 5865 5865 5865 5865 5865 5865 5865 5864
5817 5819 5821 5823 5824 5826 5828 5830 5831 5833 5835 5836 5838 5840 5841 5843 5845 5846 5848 5849 5850 5852 5853 5854 5855 5856 5857 5858 5859 5860 5860 5861 5862 5862 5862 5863 5863 5863 5863 5863 5863 5862 5862
5811 5812 5814 5816 5818 5820 5821 5823 5825 5827 5829 5831 5833 5835 5836 5838 5840 5842 5844 5845 5847 5848 5849 5851 5852 5853 5854 5855 5856 5857 5858 5858 5859 5860 5860 5860 5861 5861 5861 5860 5860 5860 5860
5804 5805 5807 5809 5811 5813 5815 5817 5819 5821 5823 5825 5827 5829 5831 5833 5835 5838 5839 5841 5843 5844 5845 5847 5848 5849 5850 5851 5852 5853 5854 5855 5856 5857 5857 5858 5858 5858 5858 5858 5858 5857 5857
5796 5798 5800 5802 5804 5806 5808 5810 5812 5814 5816 5818 5820 5823 5825 5827 5830 5832 5834 5836 5838 5840 5841 5842 5844 5845 5846 5847 5849 5850 5851 5851 5852 5853 5854 5855 5855 5855 5855 5855 5855 5855 5855
5789 5790 5792 5794 5796 5798 5800 5802 5805 5806 5808 5811 5813 5816 5818 5821 5824 5826 5829 5831 5833 5835 5836 5838 5839 5841 5842 5843 5844 5845 5847 5848 5849 5850 5850 5851 5851 5851 5851 5851 5851 5851 5851
5781 5782 5784 5786 5788 5790 5792 5795 5797 5799 5801 5803 5806 5809 5812 5814 5817 5820 5822 5825 5827 5829 5831 5833 5834 5836 5837 5838 5840 5841 5842 5843 5844 5845 5846 5847 5847 5847 5848 5848 5848 5847 5847
5773 5774 5776 5778 5780 5782 5784 5787 5789 5792 5794 5796 5799 5802 5805 5808 5810 5813 5816 5819 5821 5823 5826 5828 5829 5831 5832 5834 5835 5836 5838 5839 5840 5841 5842 5842 5843 5843 5843 5843 5843 5843 5843
5764 5766 5768 5770 5772 5774 5776 5779 5781 5784 5786 5789 5792 5795 5798 5801 5804 5806 5809 5812 5815 5817 5819 5822 5823 5825 5827 5829 5830 5831 5833 5834 5835 5836 5837 5837 5838 5838 5838 5838 5838 5839 5838
5755 5757 5759 5761 5764 5766 5768 5770 5772 5775 5779 5782 5785 5788 5791 5794 5797 5799 5802 5805 5808 5810 5813 5815 5818 5819 5821 5823 5825 5826 5827 5829 5830 5830 5831 5832 5832 5833 5833 5833 5833 5833 5833
5746 5748 5751 5753 5755 5757 5759 5761 5764 5767 5771 5774 5777 5781 5784 5787 5790 5792 5795 5798 5801 5804 5806 5809 5811 5813 5815 5817 5819 5820 5822 5823 5824 5825 5826 5826 5826 5827 5827 5828 5828 5828 5828
5737 5739 5742 5744 5747 5749 5751 5753 5756 5759 5763 5766 5770 5773 5776 5779 5782 5785 5788 5791 5794 5796 5799 5802 5804 5807 5809 5811 5812 5814 5815 5817 5818 5819 5819 5820 5820 5821 5821 5822 5822 5822 5822
5728 5731 5733 5736 5738 5741 5744 5746 5749 5752 5755 5759 5762 5766 5769 5771 5774 5777 5780 5783 5786 5789 5792 5795 5797 5799 5802 5804 5806 5807 5808 5809 5811 5812 5813 5814 5814 5814 5815 5815 5815 5815 5815
5719 5722 5724 5727 5730 5733 5736 5739 5742 5745 5748 5751 5754 5757 5760 5763 5766 5769 5772 5775 5778 5781 5784 5787 5790 5792 5795 5797 5799 5800 5801 5802 5803 5805 5806 5807 5807 5807 5808 5808 5808 5808 5809
5710 5713 5716 5719 5721 5724 5727 5730 5734 5737 5740 5743 5746 5749 5752 5755 5758 5761 5764 5767 5770 5773 5776 5779 5782 5785 5787 5789 5791 5793 5794 5795 5797 5798 5798 5799 5800 5800 5800 5801 5801 5801 5801
5701 5704 5707 5710 5713 5716 5719 5722 5726 5730 5733 5736 5738 5741 5743 5746 5749 5752 5755 5758 5761 5765 5768 5771 5774 5777 5778 5780 5782 5785 5786 5788 5789 5790 5791 5792 5792 5792 5792 5793 5793 5793 5793
5692 5695 5698 5701 5705 5708 5711 5714 5718 5721 5725 5727 5730 5733 5735 5738 5741 5744 5747 5750 5753 5756 5760 5763 5766 5768 5770 5772 5774 5776 5778 5780 5781 5782 5783 5784 5784 5784 5784 5784 5784 5785 5785
5683 5687 5690 5693 5696 5700 5703 5706 5710 5713 5717 5719 5722 5725 5728 5730 5734 5736 5738 5742 5745 5748 5751 5754 5757 5760 5762 5764 5766 5768 5770 5771 5773 5774 5775 5775 5776 5776 5775 5775 5775 5776 5775